Location: Unspecified
(17.6330°N, 0.0000°E)
Time: 03:28:36
(UTC+00:00)

S-56A Canister/Altair - Pass Details

Date: 29 June 2019
Orbit: 632 x 2500 km, 38.9° (Epoch: 21 July)

Event Time Altitude Azimuth Distance (km) Brightness Sun altitude
Rises 13:38:57 0° 263° (W) 6,103 12.4 67.0°
Reaches altitude 10° 13:43:43 10° 271° (W) 4,959 12.2 65.9°
Maximum altitude 13:55:46 36° 332° (NNW) 2,789 11.3 63.2°
Drops below altitude 10° 14:04:43 10° 36° (NE) 3,666 11.0 61.1°
Sets 14:07:42 0° 46° (NE) 4,388 11.3 60.4°
